AISSAT 1 (36797 NORAD) Tracking and Keplerian Element Data

This shows tracking and keplerian element data for the satellite.

Feedback or suggestion? Click here.




ElementValue
Catalog36797
NameAISSAT 1
Epoch Orbit73205
Epoch Day13.13517173
Epoch Year2024
RAAN228.8255
Inclination98.2036
Eccentricity0.0011707
Argument of Perigee95.4123
Mean Anonmoly264.843
Mean Motion14.89992891
Decay Rate3.992E-05
L11 36797U 10035C 24013.13517173 .00003992 00000+0 41976-3 0 9991
L22 36797 98.2036 228.8255 0011707 95.4123 264.8430 14.89992891732058



Live tracking and technical data element details for AISSAT 1 (NORAD 36797). AISSAT 1 can be tracked NOW for your location showing map with azimuth and elevation plus other details from your city location.







IsCatalogInMostPopularTable: catalog: 36797, numindb: 25204
Update: records affected: 1



GetName: 36797 AISSAT 1

Hit Count: updated at: Sat, 20 Apr 2024 10:59:36 GMT